Weather History for Marysville, OH

Change the Weather History Date:

Saturday, December 8, 2012

  Actual Average (KDLZ) Record (KDLZ)
Temperature  
Mean Temperature 45 °F -  
Max Temperature 51 °F 41 °F 62 °F (1946)
Min Temperature 39 °F 27 °F -2 °F (1977)
Degree Days  
Heating Degree Days 20    
Moisture  
Dew Point 45 °F    
Average Humidity 91    
Maximum Humidity 96    
Minimum Humidity 82    
Precipitation  
Precipitation 0.00 in - - ()
Sea Level Pressure  
Sea Level Pressure 29.91 in    
Wind  
Wind Speed 8 mph (WNW)    
Max Wind Speed 13 mph    
Max Gust Speed 18 mph    
Visibility 5 miles    
Events      
Averages and records for this station are not official NWS values.
T = Trace of Precipitation, MM = Missing Value Source: NWS Daily Summary

Daily Weather History Graph

Daily Weather History Graph

Search for Another Location

Airport:

Trip Planner

Search our weather history database for the weather conditions in past years. The results will help you decide how hot, cold, wet, or windy it might be!

Date:

Astronomy

Dec. 08, 2012 Rise Set
Actual Time 7:43 AM EST 5:07 PM EST
Civil Twilight 7:13 AM EST 5:37 PM EST
Nautical Twilight 6:39 AM EST 6:11 PM EST
Astronomical Twilight 6:06 AM EST 6:44 PM EST
Moon 2:06 AM EST (12/8) 1:37 PM EST (12/8)
Length of Visible Light 10h 24m
Length of Day
9h 23m
Waning Crescent, 28% of the Moon is Illuminated
Dec 8
Waning Crescent
Dec 13
New
Dec 20
First Quarter
Dec 28
Full
Jan 4
Last Quarter

Hourly Weather History & Observations

Time (EST) Temp. Windchill Dew Point Humidity Pressure Visibility Wind Dir Wind Speed Gust Speed Precip Events Conditions
12:14 AM 48.6 °F - 47.3 °F 95% 29.83 in 2.5 mi South 5.8 mph - N/A   Overcast
12:34 AM 49.1 °F - 47.7 °F 95% 29.82 in 3.0 mi SW 8.1 mph - N/A   Overcast
12:54 AM 49.3 °F - 47.8 °F 95% 29.82 in 4.0 mi SW 6.9 mph - N/A   Overcast
1:14 AM 49.5 °F - 48.2 °F 95% 29.81 in 4.0 mi SW 8.1 mph - N/A   Overcast
1:34 AM 49.3 °F - 48.2 °F 96% 29.81 in 5.0 mi SW 6.9 mph - N/A   Overcast
1:54 AM 49.6 °F - 48.4 °F 95% 29.81 in 5.0 mi WSW 6.9 mph - N/A   Overcast
2:14 AM 50.2 °F - 48.7 °F 95% 29.81 in 7.0 mi WSW 10.4 mph - N/A   Overcast
2:34 AM 50.0 °F - 48.4 °F 94% 29.82 in 7.0 mi West 11.5 mph 17.3 mph N/A   Overcast
2:54 AM 49.1 °F - 47.1 °F 93% 29.82 in 10.0 mi WSW 4.6 mph - N/A   Scattered Clouds
3:14 AM 47.8 °F - 45.7 °F 92% 29.83 in 7.0 mi SW 6.9 mph - N/A   Scattered Clouds
3:34 AM 47.3 °F - 45.5 °F 93% 29.83 in 5.0 mi SW 8.1 mph - N/A   Mostly Cloudy
3:54 AM 48.2 °F - 46.4 °F 93% 29.83 in 5.0 mi SW 8.1 mph - N/A   Overcast
4:14 AM 48.9 °F - 46.8 °F 92% 29.83 in 7.0 mi West 10.4 mph 17.3 mph N/A   Overcast
4:34 AM 48.4 °F - 46.4 °F 93% 29.83 in 5.0 mi WSW 9.2 mph - N/A   Overcast
4:54 AM 48.7 °F - 46.4 °F 92% 29.83 in 5.0 mi WSW 9.2 mph - N/A   Overcast
5:14 AM 48.9 °F - 46.4 °F 91% 29.82 in 5.0 mi WSW 10.4 mph - N/A   Overcast
5:34 AM 49.1 °F - 46.6 °F 91% 29.83 in 5.0 mi WSW 11.5 mph - N/A   Overcast
6:14 AM 48.7 °F - 46.2 °F 91% 29.83 in 5.0 mi West 9.2 mph - N/A   Overcast
6:34 AM 48.7 °F - 46.2 °F 91% 29.83 in 4.0 mi SW 8.1 mph - N/A   Overcast
6:54 AM 48.6 °F - 46.2 °F 92% 29.83 in 4.0 mi SW 8.1 mph - N/A   Overcast
7:14 AM 48.6 °F - 46.4 °F 92% 29.83 in 4.0 mi SW 9.2 mph - N/A   Overcast
7:34 AM 49.3 °F - 46.8 °F 91% 29.84 in 4.0 mi WSW 9.2 mph - N/A   Overcast
7:54 AM 49.3 °F - 46.9 °F 92% 29.85 in 2.5 mi WSW 9.2 mph - N/A   Overcast
8:14 AM 49.3 °F - 46.9 °F 92% 29.85 in 2.5 mi WSW 8.1 mph - N/A   Overcast
8:34 AM 49.5 °F - 47.3 °F 92% 29.85 in 2.5 mi WSW 10.4 mph - N/A   Overcast
8:54 AM 49.6 °F - 47.3 °F 92% 29.86 in 2.5 mi WSW 8.1 mph - N/A   Overcast
9:14 AM 50.0 °F - 47.5 °F 91% 29.86 in 2.5 mi WSW 8.1 mph - N/A   Overcast
9:34 AM 50.0 °F - 47.5 °F 91% 29.87 in 2.0 mi WSW 8.1 mph - N/A   Overcast
9:53 AM 50.2 °F - 47.8 °F 92% 29.87 in 2.5 mi West 8.1 mph - N/A   Overcast
10:14 AM 50.2 °F - 47.7 °F 91% 29.88 in 3.0 mi West 6.9 mph - N/A   Overcast
10:34 AM 50.2 °F - 47.7 °F 91% 29.88 in 2.5 mi West 5.8 mph - N/A   Overcast
10:53 AM 50.5 °F - 48.2 °F 92% 29.88 in 3.0 mi West 4.6 mph - N/A   Overcast
11:14 AM 50.9 °F - 48.0 °F 90% 29.87 in 4.0 mi WSW 4.6 mph - N/A   Overcast
11:34 AM 50.9 °F - 47.7 °F 89% 29.87 in 5.0 mi West 6.9 mph - N/A   Overcast
11:53 AM 50.9 °F - 47.7 °F 89% 29.87 in 5.0 mi West 8.1 mph - N/A   Overcast
12:14 PM 51.3 °F - 47.5 °F 87% 29.87 in 5.0 mi WNW 8.1 mph - N/A   Overcast
12:34 PM 51.3 °F - 46.9 °F 85% 29.87 in 5.0 mi WNW 9.2 mph - N/A   Overcast
12:53 PM 51.1 °F - 47.3 °F 87% 29.87 in 5.0 mi WNW 9.2 mph - N/A   Overcast
1:14 PM 51.6 °F - 46.6 °F 83% 29.87 in 7.0 mi WNW 9.2 mph - N/A   Overcast
1:34 PM 51.1 °F - 46.0 °F 83% 29.88 in 7.0 mi NW 8.1 mph - N/A   Overcast
1:53 PM 50.2 °F - 45.0 °F 82% 29.89 in 7.0 mi WNW 12.7 mph - N/A   Overcast
2:14 PM 50.2 °F - 45.1 °F 83% 29.89 in 7.0 mi WNW 9.2 mph - N/A   Overcast
2:34 PM 50.2 °F - 45.1 °F 83% 29.90 in 7.0 mi WNW 8.1 mph - N/A   Overcast
2:54 PM 50.0 °F - 45.0 °F 83% 29.91 in 7.0 mi NW 8.1 mph - N/A   Overcast
3:14 PM 49.3 °F - 44.8 °F 84% 29.92 in 7.0 mi NW 6.9 mph - N/A   Overcast
3:34 PM 49.1 °F - 44.6 °F 84% 29.94 in 7.0 mi NW 8.1 mph - N/A   Overcast
3:54 PM 48.7 °F - 44.2 °F 84% 29.95 in 10.0 mi NW 5.8 mph - N/A   Overcast
4:14 PM 48.0 °F - 43.9 °F 86% 29.95 in 7.0 mi North 9.2 mph - N/A   Overcast
4:34 PM 47.3 °F - 44.1 °F 88% 29.95 in 5.0 mi North 9.2 mph - N/A   Overcast
4:54 PM 46.8 °F - 44.1 °F 90% 29.96 in 5.0 mi North 9.2 mph - N/A   Overcast
5:14 PM 46.4 °F 42.9 °F 43.5 °F 90% 29.96 in 5.0 mi North 6.9 mph - N/A   Overcast
5:34 PM 46.0 °F 41.9 °F 43.3 °F 90% 29.97 in 5.0 mi North 8.1 mph - N/A   Overcast
5:54 PM 45.7 °F 43.4 °F 43.5 °F 92% 29.98 in 4.0 mi North 4.6 mph - N/A   Overcast
6:14 PM 45.5 °F 41.3 °F 43.7 °F 93% 29.99 in 3.0 mi North 8.1 mph - N/A   Overcast
6:34 PM 44.6 °F 39.2 °F 42.8 °F 93% 30.00 in 4.0 mi NNE 10.4 mph - N/A   Overcast
6:54 PM 43.7 °F 37.7 °F 41.9 °F 93% 30.02 in 3.0 mi NNE 11.5 mph - N/A   Overcast
7:14 PM 42.4 °F 36.1 °F 40.8 °F 94% 30.03 in 1.8 mi NNE 11.5 mph 18.4 mph N/A   Overcast
7:54 PM 41.5 °F 37.1 °F 40.3 °F 95% 30.04 in 3.0 mi ENE 6.9 mph - N/A   Overcast
8:14 PM 41.4 °F 35.7 °F 40.1 °F 95% 30.05 in 7.0 mi NE 9.2 mph - N/A   Overcast
8:34 PM 41.0 °F 34.7 °F 39.2 °F 93% 30.05 in 7.0 mi NE 10.4 mph - N/A   Overcast
8:54 PM 40.5 °F 34.1 °F 38.5 °F 93% 30.05 in 7.0 mi NE 10.4 mph - N/A   Overcast
9:14 PM 40.3 °F 33.9 °F 38.3 °F 93% 30.05 in 7.0 mi NE 10.4 mph - N/A   Overcast
9:34 PM 40.1 °F 34.1 °F 38.1 °F 93% 30.05 in 7.0 mi ENE 9.2 mph - N/A   Overcast
9:54 PM 40.1 °F 34.7 °F 37.9 °F 92% 30.05 in 7.0 mi NE 8.1 mph - N/A   Overcast
10:14 PM 40.1 °F 34.1 °F 38.1 °F 93% 30.06 in 7.0 mi NE 9.2 mph - N/A   Overcast
10:34 PM 40.1 °F 34.7 °F 37.8 °F 91% 30.06 in 10.0 mi NE 8.1 mph - N/A   Overcast
10:54 PM 39.7 °F 34.9 °F 37.4 °F 91% 30.07 in 10.0 mi NNE 6.9 mph - N/A   Overcast
11:14 PM 39.7 °F 33.7 °F 37.4 °F 91% 30.06 in 10.0 mi NE 9.2 mph - N/A   Overcast
11:34 PM 39.6 °F 34.0 °F 37.4 °F 92% 30.07 in 10.0 mi ENE 8.1 mph - N/A   Overcast
11:54 PM 39.7 °F 32.7 °F 37.4 °F 91% 30.07 in 10.0 mi ENE 11.5 mph - N/A   Overcast